FW0380 Weather Reports


time (UTC)temp
C
wind
direction
speed
KPH
gust
KPH
rain 1hr
cm
rain 24hr
cm
rain mn
cm
humidity
%
barometer
mb
20260505004200 18 229 3.2 11.3 0.00 0.00 0.00 46 1011.7
20260505003701 18 212 4.8 11.3 0.00 0.00 0.00 45 1011.7
20260505003202 18 232 4.8 16.1 0.00 0.00 0.00 45 1011.7
20260505002702 18 234 3.2 16.1 0.00 0.00 0.00 44 1011.6
20260505002221 19 203 1.6 9.7 0.00 0.00 0.00 44 1011.5
20260505002211 18 214 1.6 8.0 0.00 0.00 0.00 44 1011.7
20260505001429 19 177 1.6 9.7 0.00 0.00 0.00 43 1011.5
20260505000655 19 163 1.6 9.7 0.00 0.00 0.00 42 1011.5
20260505000649 19 182 1.6 9.7 0.00 0.00 0.00 43 1011.5
20260504235635 19 213 1.6 8.0 0.00 0.00 0.00 42 1011.4
20260504235135 19 240 1.6 6.4 0.00 0.00 0.00 42 1011.4
20260504234634 20 209 3.2 9.7 0.00 0.00 0.00 42 1011.4
20260504234133 20 170 3.2 12.9 0.00 0.00 0.00 41 1011.4
20260504233634 20 264 3.2 12.9 0.00 0.00 0.00 41 1011.5
20260504233129 20 233 3.2 12.9 0.00 0.00 0.00 41 1011.4
20260504232631 20 163 4.8 12.9 0.00 0.00 0.00 40 1011.4
20260504232129 20 227 3.2 12.9 0.00 0.00 0.00 40 1011.4
20260504231630 20 171 3.2 12.9 0.00 0.00 0.00 41 1011.4
20260504231129 20 239 4.8 14.5 0.00 0.00 0.00 40 1011.4
20260504230629 20 234 4.8 14.5 0.00 0.00 0.00 39 1011.5
20260504230130 20 227 3.2 12.9 0.00 0.00 0.00 40 1011.4
20260504225907 20 229 4.8 24.1 0.00 0.00 0.00 40 1011.4
20260504225129 20 259 4.8 24.1 0.00 0.00 0.00 39 1011.3
20260504224907 20 195 4.8 14.5 0.00 0.00 0.00 40 1011.5
20260504224423 20 111 4.8 14.5 0.00 0.00 0.00 39 1011.4
20260504224138 20 265 4.8 14.5 0.00 0.00 0.00 39 1011.4
20260504223129 20 232 3.2 12.9 0.00 0.00 0.00 39 1011.3
20260504222629 20 238 4.8 17.7 0.00 0.00 0.00 39 1011.3
20260504222406 21 258 4.8 17.7 0.00 0.00 0.00 38 1011.4
20260504221629 21 221 4.8 14.5 0.00 0.00 0.00 39 1011.5
20260504221129 21 217 6.4 14.5 0.00 0.00 0.00 39 1011.6
20260504220903 21 174 6.4 17.7 0.00 0.00 0.00 37 1011.5
20260504220125 21 168 4.8 12.9 0.00 0.00 0.00 39 1011.6
20260504215859 21 169 4.8 12.9 0.00 0.00 0.00 37 1011.5
20260504215123 21 232 4.8 14.5 0.00 0.00 0.00 38 1011.8
20260504214905 21 217 4.8 14.5 0.00 0.00 0.00 37 1011.8
20260504214120 21 121 4.8 14.5 0.00 0.00 0.00 38 1011.7
20260504213620 21 240 6.4 14.5 0.00 0.00 0.00 37 1011.8
20260504213116 21 212 6.4 12.9 0.00 0.00 0.00 36 1011.8
20260504212616 21 251 4.8 17.7 0.00 0.00 0.00 36 1011.8
20260504212115 21 163 4.8 17.7 0.00 0.00 0.00 37 1011.9
20260504211617 21 194 4.8 14.5 0.00 0.00 0.00 37 1011.8
20260504211116 21 222 4.8 17.7 0.00 0.00 0.00 37 1011.7
20260504210616 21 173 4.8 17.7 0.00 0.00 0.00 37 1011.7
20260504210116 21 157 4.8 16.1 0.00 0.00 0.00 37 1011.8
20260504205617 21 219 6.4 16.1 0.00 0.00 0.00 36 1011.7
20260504205111 22 223 6.4 20.9 0.00 0.00 0.00 35 1011.7
20260504204617 22 113 6.4 24.1 0.00 0.00 0.00 34 1011.8
20260504204609 22 168 6.4 20.9 0.00 0.00 0.00 36 1011.7
20260504203606 22 201 6.4 24.1 0.00 0.00 0.00 36 1011.8
20260504203105 22 237 8.0 24.1 0.00 0.00 0.00 34 1011.7
20260504202604 22 128 8.0 24.1 0.00 0.00 0.00 34 1012.0
20260504202104 22 202 6.4 19.3 0.00 0.00 0.00 34 1011.9
20260504201604 22 165 6.4 17.7 0.00 0.00 0.00 36 1012.0
20260504201106 22 205 4.8 24.1 0.00 0.00 0.00 35 1012.1
20260504200605 22 283 4.8 24.1 0.00 0.00 0.00 34 1012.1
20260504200337 22 291 8.0 27.4 0.00 0.00 0.00 38 1012.1
20260504195605 22 154 9.7 30.6 0.00 0.00 0.00 34 1012.1
20260504195104 22 211 8.0 30.6 0.00 0.00 0.00 34 1012.2
20260504194603 22 241 8.0 22.5 0.00 0.00 0.00 36 1012.4
20260504194104 22 90 8.0 19.3 0.00 0.00 0.00 34 1012.5
20260504193604 22 209 8.0 19.3 0.00 0.00 0.00 35 1012.5
20260504193339 22 204 6.4 17.7 0.00 0.00 0.00 35 1012.6
20260504192605 22 180 6.4 17.7 0.00 0.00 0.00 35 1012.5
20260504192104 22 300 6.4 14.5 0.00 0.00 0.00 35 1012.6
20260504191605 22 219 6.4 16.1 0.00 0.00 0.00 35 1012.7
20260504191104 22 227 6.4 16.1 0.00 0.00 0.00 33 1012.8
20260504190605 22 304 6.4 25.7 0.00 0.00 0.00 34 1012.7
20260504190104 22 227 6.4 25.7 0.00 0.00 0.00 34 1012.8
20260504185604 22 198 6.4 27.4 0.00 0.00 0.00 34 1012.9
20260504185121 22 257 4.8 14.5 0.00 0.00 0.00 35 1012.8
20260504185109 22 184 6.4 27.4 0.00 0.00 0.00 34 1012.9
20260504184104 22 229 4.8 14.5 0.00 0.00 0.00 35 1012.9
20260504183601 22 267 4.8 14.5 0.00 0.00 0.00 33 1013.0
20260504183334 22 279 4.8 14.5 0.00 0.00 0.00 35 1013.1
20260504182600 22 236 4.8 19.3 0.00 0.00 0.00 34 1013.2
20260504182103 22 235 6.4 19.3 0.00 0.00 0.00 35 1013.1
20260504181601 22 154 6.4 19.3 0.00 0.00 0.00 37 1013.2
20260504181101 21 229 4.8 19.3 0.00 0.00 0.00 34 1013.4
20260504180603 21 196 4.8 12.9 0.00 0.00 0.00 35 1013.4
20260504180101 21 122 6.4 17.7 0.00 0.00 0.00 34 1013.5
20260504175601 21 232 6.4 17.7 0.00 0.00 0.00 35 1013.7
20260504175119 21 162 8.0 24.1 0.00 0.00 0.00 33 1013.8
20260504175110 21 240 8.0 17.7 0.00 0.00 0.00 37 1013.8
20260504174101 21 223 8.0 24.1 0.00 0.00 0.00 36 1013.8
20260504173601 21 212 6.4 19.3 0.00 0.00 0.00 34 1014.0
20260504173336 21 217 3.2 14.5 0.00 0.00 0.00 37 1013.8
20260504172603 21 82 4.8 12.9 0.00 0.00 0.00 38 1013.8
20260504172101 21 258 6.4 12.9 0.00 0.00 0.00 37 1014.0
20260504171602 20 228 6.4 17.7 0.00 0.00 0.00 36 1014.0
20260504171100 20 243 8.0 17.7 0.00 0.00 0.00 38 1014.1
20260504170601 20 195 8.0 22.5 0.00 0.00 0.00 37 1014.2
20260504160122 18 192 6.4 19.3 0.00 0.00 0.00 39 1015.2
20260504160113 18 248 6.4 19.3 0.00 0.00 0.00 40 1015.0
20260504151102 16 149 4.8 17.7 0.00 0.00 0.00 53 1015.6
20260504150558 16 255 4.8 19.3 0.00 0.00 0.00 53 1015.4
20260504141031 14 152 4.8 16.1 0.00 0.00 0.00 61 1015.9
20260504140530 13 232 3.2 16.1 0.00 0.00 0.00 62 1015.8
20260504130802 11 136 4.8 16.1 0.00 0.00 0.00 73 1016.2
20260504100501 4 219 0.0 0.0 0.00 0.00 0.00 88 1016.9
20260504081937 5 219 0.0 0.0 0.00 0.00 0.00 87 1016.8
20260504081436 5 219 0.0 0.0 0.00 0.00 0.00 87 1016.8
20260504080934 5 219 0.0 3.2 0.00 0.00 0.00 87 1016.7
20260504080436 5 219 0.0 3.2 0.00 0.00 0.00 87 1016.8
20260504080207 5 219 0.0 4.8 0.00 0.00 0.00 87 1016.8
20260504050408 5 238 0.0 0.0 0.00 0.00 0.00 80 1016.7
20260504045906 5 237 0.0 0.0 0.00 0.00 0.00 79 1016.7
20260504045406 5 237 0.0 4.8 0.00 0.00 0.00 79 1016.8
20260504044901 5 251 0.0 4.8 0.00 0.00 0.00 79 1016.8
20260504044640 5 252 1.6 4.8 0.00 0.00 0.00 79 1016.7
20260504043902 5 252 0.0 4.8 0.00 0.00 0.00 78 1016.8
20260504043401 5 252 0.0 0.0 0.00 0.00 0.00 76 1016.7
20260504042901 5 252 0.0 0.0 0.00 0.00 0.00 76 1016.5
20260504042401 5 252 0.0 0.0 0.00 0.00 0.00 76 1016.5
20260504041901 5 252 0.0 1.6 0.00 0.00 0.00 75 1016.4
20260504041403 5 252 0.0 1.6 0.00 0.00 0.00 75 1016.4
20260504040901 5 252 0.0 1.6 0.00 0.00 0.00 75 1016.3
20260504040402 5 252 0.0 3.2 0.00 0.00 0.00 75 1016.3
20260504035858 6 252 0.0 3.2 0.00 0.00 0.00 75 1016.3
20260504035400 6 252 0.0 0.0 0.00 0.00 0.00 75 1016.2
20260504034859 6 252 0.0 0.0 0.00 0.00 0.00 74 1016.2
20260504034400 6 252 0.0 0.0 0.00 0.00 0.00 74 1016.3
20260504033900 6 252 0.0 0.0 0.00 0.00 0.00 73 1016.2
20260504033400 6 252 0.0 0.0 0.00 0.00 0.00 73 1016.3
20260504032901 6 252 0.0 0.0 0.00 0.00 0.00 72 1016.3
20260504032357 6 252 0.0 0.0 0.00 0.00 0.00 72 1016.2
20260504031856 6 252 0.0 0.0 0.00 0.00 0.00 72 1016.2
20260504031351 6 252 0.0 0.0 0.00 0.00 0.00 71 1016.1
20260504030844 6 252 0.0 0.0 0.00 0.00 0.00 70 1016.2
20260504030340 6 252 0.0 0.0 0.00 0.00 0.00 70 1016.1
20260504025839 6 252 0.0 0.0 0.00 0.00 0.00 70 1016.1
20260504025338 6 252 0.0 0.0 0.00 0.00 0.00 70 1016.1
20260504024836 6 252 0.0 0.0 0.00 0.00 0.00 69 1016.1
20260504024333 6 252 0.0 0.0 0.00 0.00 0.00 69 1016.2
20260504023832 7 252 0.0 0.0 0.00 0.00 0.00 69 1016.2
20260504023601 7 252 0.0 0.0 0.00 0.00 0.00 69 1016.2
20260504022831 7 252 0.0 0.0 0.00 0.00 0.00 69 1016.1
20260504022329 7 252 0.0 0.0 0.00 0.00 0.00 68 1016.1
20260504021829 7 252 0.0 0.0 0.00 0.00 0.00 67 1016.0
20260504021329 7 252 0.0 0.0 0.00 0.00 0.00 67 1016.0
20260504021105 7 252 0.0 0.0 0.00 0.00 0.00 67 1016.1
20260504020329 7 252 0.0 0.0 0.00 0.00 0.00 67 1016.1
20260504015329 7 252 0.0 0.0 0.00 0.00 0.00 67 1016.0
20260504014830 7 252 0.0 0.0 0.00 0.00 0.00 65 1016.0
20260504014329 8 252 0.0 0.0 0.00 0.00 0.00 64 1015.8
20260504014100 8 252 0.0 0.0 0.00 0.00 0.00 64 1015.8
20260504013604 8 252 0.0 0.0 0.00 0.00 0.00 63 1015.8
20260504012830 8 252 0.0 0.0 0.00 0.00 0.00 64 1015.9
20260504012329 8 252 0.0 0.0 0.00 0.00 0.00 62 1015.9
20260504011830 8 252 0.0 0.0 0.00 0.00 0.00 61 1015.7
20260504011334 8 252 0.0 0.0 0.00 0.00 0.00 62 1015.7
20260504010830 9 252 0.0 0.0 0.00 0.00 0.00 59 1015.6
20260504010331 9 252 0.0 0.0 0.00 0.00 0.00 57 1015.4
20260504005830 9 252 0.0 0.0 0.00 0.00 0.00 56 1015.4
20260504005330 10 252 0.0 0.0 0.00 0.00 0.00 54 1015.3
20260504004829 10 252 0.0 0.0 0.00 0.00 0.00 55 1015.4
20260504004611 11 252 0.0 0.0 0.00 0.00 0.00 53 1015.3
20260504004606 10 252 0.0 0.0 0.00 0.00 0.00 55 1015.2